This is the latest recevied weather packets stored in our database for station/object DR0T. If no packets are shown the sender has not sent any weather packets the latest 10 day(s).
| Time | Temp. | Humidity | Pressure | Rain* | Wind** | Luminosity | Snow |
|---|---|---|---|---|---|---|---|
| 1778239050 | 12.22° C | 79% | 1018.4 hPa | 0 mm | - | - | - |
| 1778238749 | 12.22° C | 81% | 1018.4 hPa | 0 mm | - | - | - |
| 1778238447 | 12.22° C | 80% | 1018.4 hPa | 0 mm | - | - | - |
| 1778238146 | 12.22° C | 80% | 1018.4 hPa | 0 mm | - | - | - |
| 1778237849 | 12.22° C | 80% | 1018.4 hPa | 0 mm | - | - | - |
| 1778237548 | 11.67° C | 81% | 1018.5 hPa | 0 mm | - | - | - |
| 1778237243 | 12.22° C | 81% | 1018.5 hPa | 0 mm | - | - | - |
| 1778236942 | 12.22° C | 80% | 1018.4 hPa | 0 mm | - | - | - |
| 1778236640 | 12.22° C | 78% | 1018.4 hPa | 0 mm | - | - | - |
| 1778236343 | 12.22° C | 79% | 1018.4 hPa | 0 mm | - | - | - |
| 1778236038 | 12.22° C | 79% | 1018.4 hPa | 0 mm | - | - | - |
| 1778235736 | 12.22° C | 78% | 1018.4 hPa | 0 mm | - | - | - |
| 1778235457 | 11.67° C | 78% | 1018.4 hPa | 0 mm | - | - | - |
| 1778235154 | 11.67° C | 75% | 1018.5 hPa | 0 mm | - | - | - |
| 1778234853 | 12.22° C | 75% | 1018.4 hPa | 0 mm | - | - | - |
| 1778234552 | 11.67° C | 77% | 1018.5 hPa | 0 mm | - | - | - |
| 1778234250 | 12.22° C | 75% | 1018.5 hPa | 0 mm | - | - | - |
| 1778233955 | 12.78° C | 76% | 1018.5 hPa | 0 mm | - | - | - |
| 1778233648 | 13.33° C | 74% | 1018.4 hPa | 0 mm | - | - | - |
| 1778233351 | 13.33° C | 72% | 1018.4 hPa | 0 mm | - | - | - |
| 1778233045 | 13.89° C | 74% | 1018.4 hPa | 0 mm | - | - | - |
| 1778232745 | 13.33° C | 72% | 1018.4 hPa | 0 mm | - | - | - |
| 1778232444 | 13.33° C | 72% | 1018.4 hPa | 0 mm | - | - | - |
| 1778232142 | 13.33° C | 74% | 1018.4 hPa | 0 mm | - | - | - |
| 1778231841 | 12.78° C | 75% | 1018.5 hPa | 0 mm | - | - | - |
* Rain latest hour (hover to see other rain measurements)
** Current wind speed in m/s (hover to see current wind gust speed)